Location: Cartignies
(50.0929°N, 3.8447°E)
Time: 13:40:08
(UTC+00:00)

USA 215 - Pass Details

Date: 12 January 2026
Orbit: 1098 x 1109 km, 123.0° (Epoch: 10 January)

Event Time Altitude Azimuth Distance (km) Brightness Sun altitude
Exits shadow 18:10:45 30° 76° (ENE) 1,853 3.9 -19.1°
Maximum altitude 18:13:52 54° 138° (SE) 1,317 3.5 -19.6°
Drops below altitude 10° 18:20:14 10° 215° (SW) 2,950 6.1 -20.6°
Sets 18:22:46 0° 220° (SW) 3,904 6.9 -21.0°
